Location: Ab? ar R?sh Ba?r?
(24.1861°N, 32.8847°E)
Time: 04:21:02
(UTC+00:00)

ISS - Visible Passes

Search period start: 28 February 2024 00:00
Search period end: 09 March 2024 00:00
Orbit: 414 x 422 km, 51.6° (Epoch: 27 February)

Date Brightness Start Highest point End Pass type
(mag) Time Alt. Az. Time Alt. Az. Time Alt. Az.
06 Mar -1.3 03:41:18 10° N 03:43:58 22° NE 03:46:37 10° E visible
07 Mar -0.7 02:54:15 10° NNE 02:55:38 12° NE 02:57:01 10° ENE visible
08 Mar -3.7 03:40:57 10° NW 03:44:18 89° NNE 03:47:40 10° SE visible
